Tracking 27420 objects as of 28-May-2023
HD Live streaming from Space Station
objects crossing your sky now

STARLINK-30104

Track STARLINK-30104 now!
10-day predictions
STARLINK-30104 is classified as:


NORAD ID: 56300
Int'l Code: 2023-056Q
Perigee: 529.1 km
Apogee: 531.2 km
Inclination: 43.0 °
Period: 95.1 minutes
Semi major axis: 6901 km
RCS: Unknown
Launch date: April 19, 2023
Source: United States (US)
Launch site: AIR FORCE EASTERN TEST RANGE (AFETR)
Your satellite tracking list
Your tracking list is empty




NASA's NSSDC Master Catalog

Two Line Element Set (TLE):
1 56300U 23056Q   23148.26082703  .00006795  00000-0  37614-3 0  9997
2 56300  43.0004 339.4547 0001467 268.2535  91.8144 15.14333620  6451
Source of the keplerian elements: AFSPC